This demonstration page uses our WeatherBlox Daily Observations layout. Learn more.

Left ArrowRight Arrow

39.92423, -83.80882

Hourly Observations for January 10, 2020

Temp ( °F °C ) Dew Point ( °F °C ) Humidity (%) Winds ( mph kmh ) Pressure ( in mb ) Visibility ( mi km ) Precip ( " mm )
12:56 am 00:56 Cloudy 52 11.1 33 0.6 49 49 S 15 24 30.19 1023 10 16.0934 0 0
1:56 am 01:56 Cloudy with Light Rain 52 11.1 35 1.7 53 53 SSW 13 20 30.2 1023 10 16.0934 0.001 0.001
2:56 am 02:56 Cloudy with Light Rain 51 10.6 38 3.3 61 61 SSW 10 17 30.22 1024 10 16.0934 0.001 0.001
3:56 am 03:56 Cloudy with Rain 48 8.9 42 5.6 80 80 SW 7 11 30.25 1024 10 16.0934 0.02 0.508
4:56 am 04:56 Cloudy with Rain 46 7.8 45 7.2 96 96 SSW 7 11 30.26 1025 10 16.0934 0.09 2.286
5:56 am 05:56 Cloudy with Rain 46 7.8 46 7.8 100 100 S 6 9 30.25 1024 10 16.0934 0.07 1.778
6:56 am 06:56 Cloudy with Rain 47 8.3 47 8.3 100 100 SSE 12 19 30.23 1024 10 16.0934 0.06 1.524
7:56 am 07:56 Cloudy with Light Rain 47 8.3 47 8.3 100 100 SSE 13 20 30.24 1024 10 16.0934 0.41 10.414
8:56 am 08:56 Cloudy with Light Rain 48 8.9 46 7.8 93 93 S 13 20 30.25 1024 10 16.0934 0 0
9:56 am 09:56 Cloudy with Light Rain 49 9.4 48 8.9 97 97 S 10 17 30.26 1025 10 16.0934 0 0
10:56 am 10:56 Cloudy with Light Rain 49 9.4 49 9.4 100 100 S 12 19 30.26 1025 9 14.48406 0 0
11:56 am 11:56 Cloudy with Light Rain 50 10 50 10 100 100 S 9 15 30.24 1024 10 16.0934 0 0
12:56 pm 12:56 Cloudy with Light Rain 52 11.1 50 10 93 93 S 9 15 30.21 1023 10 16.0934 0 0
1:56 pm 13:56 Cloudy with Light Rain 53 11.7 51 10.6 93 93 SSW 9 15 30.19 1022 10 16.0934 0 0
2:56 pm 14:56 Cloudy with Light Rain 55 12.8 52 11.1 90 90 S 9 15 30.18 1022 10 16.0934 0 0
3:56 pm 15:56 Cloudy with Light Rain 56 13.3 53 11.7 90 90 S 9 15 30.18 1022 10 16.0934 0 0
4:56 pm 16:56 Cloudy with Light Rain 56 13.3 53 11.7 90 90 S 8 13 30.18 1022 10 16.0934 0 0
5:56 pm 17:56 Cloudy with Light Rain 56 13.3 53 11.7 90 90 S 10 17 30.17 1022 10 16.0934 0 0
6:56 pm 18:56 Cloudy with Light Rain 55 12.8 54 12.2 96 96 S 9 15 30.17 1022 10 16.0934 0 0
7:56 pm 19:56 Cloudy with Light Rain 56 13.3 53 11.7 90 90 S 9 15 30.15 1021 10 16.0934 0 0
8:56 pm 20:56 Cloudy with Light Rain 56 13.3 54 12.2 93 93 S 10 17 30.13 1020 10 16.0934 0.001 0.001
9:56 pm 21:56 Cloudy with Light Rain 56 13.3 53 11.7 90 90 S 10 17 30.1 1019 10 16.0934 0.001 0.001
10:56 pm 22:56 Cloudy 55 12.8 54 12.2 96 96 S 15 24 30.08 1019 10 16.0934 0.001 0.001
11:32 pm 23:32 Cloudy with Heavy Rain 54 12 54 12 100 100 S 15 24 30.07 1018 7 11.26538 0 0
11:56 pm 23:56 Cloudy 54 12.2 54 12.2 100 100 SSE 8 13 30.06 1018 10 16.0934 0 0

Powered by AerisWeather